Location: Unspecified
(0.0000°N, 0.0000°E)
Time: 11:32:39
(UTC+00:00)

Vanguard 1 - All Passes

Search period start: 27 August 2016 00:00
Search period end: 06 September 2016 00:00
Orbit: 649 x 3835 km, 34.3° (Epoch: 25 August)

Date Brightness Start Highest point End Pass type
(mag) Time Alt. Az. Time Alt. Az. Time Alt. Az.
27 Aug - 02:08:07 10° NW 02:15:42 85° NE 02:20:31 10° SE night (unlit)
27 Aug - 11:40:15 10° SSW 11:51:13 35° SE 12:08:36 10° E daylight
27 Aug - 13:59:51 10° SW 14:16:01 88° NW 14:40:01 10° NE daylight
27 Aug - 16:25:18 10° W 16:44:28 41° NNW 17:05:14 10° NE daylight
27 Aug - 19:02:11 10° NW 19:16:26 19° NNW 19:28:24 10° NNE visible
27 Aug - 21:41:03 10° NNW 21:48:32 14° N 21:54:27 10° NNE visible
28 Aug - 00:06:03 10° NNW 00:15:08 28° NNE 00:20:51 10° E visible
28 Aug - 02:29:43 10° WNW 02:36:42 54° SW 02:41:20 10° SE night (unlit)
28 Aug - 12:00:41 10° SSW 12:12:31 47° SE 12:32:06 10° ENE daylight
28 Aug - 14:21:15 10° WSW 14:37:48 73° NW 15:01:40 10° NE daylight
28 Aug - 16:48:36 10° W 17:07:10 34° NNW 17:26:25 10° NNE daylight
28 Aug - 19:27:45 10° NW 19:40:09 17° N 19:50:23 10° NNE visible
28 Aug - 22:02:32 10° NNW 22:11:29 17° N 22:18:01 10° NE visible
29 Aug - 00:26:59 10° NW 00:36:53 41° NNE 00:42:42 10° E visible
29 Aug - 02:51:49 10° W 02:57:34 30° SW 03:01:46 10° SSE night (unlit)
29 Aug - 10:04:57 10° S 10:10:35 15° SE 10:18:00 10° ESE daylight
29 Aug - 12:21:19 10° SW 12:33:47 61° SE 12:54:59 10° ENE daylight
29 Aug - 14:42:57 10° WSW 14:59:48 60° NW 15:23:07 10° NE daylight
29 Aug - 17:12:34 10° WNW 17:30:14 28° NNW 17:47:43 10° NNE daylight
29 Aug - 19:52:38 10° NW 20:03:55 16° N 20:13:03 10° NNE visible
29 Aug - 22:23:42 10° NNW 22:34:07 21° NNE 22:41:09 10° ENE visible
30 Aug - 00:48:10 10° NW 00:58:23 62° NNE 01:04:07 10° ESE night (unlit)
30 Aug - 03:14:42 10° W 03:18:27 17° SW 03:21:33 10° S night (unlit)
30 Aug - 10:24:23 10° S 10:32:01 23° SE 10:43:25 10° E daylight
30 Aug - 12:42:10 10° SW 12:55:07 77° SE 13:17:22 10° ENE daylight
30 Aug - 15:05:03 10° WSW 15:22:03 49° NNW 15:44:28 10° NE daylight
30 Aug - 17:37:11 10° WNW 17:53:39 23° NNW 18:09:17 10° NNE daylight
30 Aug - 20:16:22 10° NNW 20:27:36 17° N 20:36:21 10° NE visible
30 Aug - 22:44:46 10° NNW 22:56:27 28° NNE 23:03:45 10° ENE visible
31 Aug - 01:09:39 10° NW 01:19:36 86° SW 01:25:12 10° SE night (unlit)
31 Aug - 10:44:23 10° SSW 10:53:14 32° SE 11:07:42 10° E daylight
31 Aug - 13:03:13 10° SW 13:16:37 86° NW 13:39:21 10° NE daylight
31 Aug - 15:27:37 10° W 15:44:35 40° NNW 16:05:47 10° NE daylight
31 Aug - 18:02:12 10° NW 18:17:26 20° NNW 18:31:16 10° NNE visible
31 Aug - 20:38:59 10° NNW 20:50:59 19° N 20:59:52 10° NE visible
31 Aug - 23:05:52 10° NW 23:18:33 37° NNE 23:25:51 10° E visible
01 Sep - 01:31:30 10° WNW 01:40:35 54° SW 01:45:57 10° SE night (unlit)
01 Sep - 11:04:42 10° SSW 11:14:20 44° SE 11:31:09 10° ENE daylight
01 Sep - 13:24:32 10° WSW 13:38:21 70° NW 14:01:05 10° NE daylight
01 Sep - 15:50:44 10° W 16:07:26 32° NNW 16:27:11 10° NNE daylight
01 Sep - 18:27:10 10° NW 18:41:25 19° N 18:53:51 10° NNE visible
01 Sep - 21:00:52 10° NNW 21:14:04 22° NNE 21:23:12 10° ENE visible
01 Sep - 23:27:07 10° NW 23:40:21 51° NNE 23:47:31 10° ESE visible
02 Sep - 01:53:51 10° WNW 02:01:25 32° SW 02:06:21 10° SSE night (unlit)
02 Sep - 09:10:35 10° SSE 09:13:34 12° SE 09:17:03 10° ESE daylight
02 Sep - 11:25:15 10° SW 11:35:25 60° SE 11:54:00 10° ENE daylight
02 Sep - 13:46:11 10° WSW 14:00:20 56° NNW 14:22:37 10° NE daylight
02 Sep - 16:14:26 10° WNW 16:30:40 27° NNW 16:48:46 10° NNE daylight
02 Sep - 18:51:31 10° NW 19:05:27 18° N 19:17:05 10° NE visible
02 Sep - 21:22:23 10° NNW 21:36:49 27° NNE 21:46:07 10° ENE visible
02 Sep - 23:48:33 10° NW 00:01:52 72° NE 00:08:52 10° ESE visible
03 Sep - 02:16:54 10° W 02:22:15 19° SW 02:26:14 10° S night (unlit)
03 Sep - 09:29:05 10° S 09:34:50 19° SE 09:42:59 10° E daylight
03 Sep - 11:46:03 10° SW 11:56:37 78° SE 12:16:22 10° NE daylight
03 Sep - 14:08:13 10° W 14:22:36 45° NNW 14:44:03 10° NE daylight
03 Sep - 16:38:41 10° WNW 16:54:17 23° NNW 17:10:44 10° NNE daylight
03 Sep - 19:14:55 10° NW 19:29:18 20° N 19:40:43 10° NE visible
03 Sep - 21:43:45 10° NW 21:59:15 35° NNE 22:08:33 10° E visible
04 Sep - 00:10:16 10° NW 00:23:07 81° SW 00:29:52 10° SE visible
04 Sep - 02:42:04 10° SW 02:43:12 10° SW 02:44:18 10° SSW night (unlit)
04 Sep - 09:48:50 10° SSW 09:55:53 29° SE 10:07:12 10° E daylight
04 Sep - 12:07:04 10° WSW 12:18:02 82° NW 12:38:21 10° NE daylight
04 Sep - 14:30:42 10° W 14:45:11 37° NNW 15:05:30 10° NE daylight
04 Sep - 17:03:12 10° NW 17:18:14 21° N 17:33:14 10° NNE daylight
04 Sep - 19:37:28 10° NNW 19:52:52 22° NNE 20:04:21 10° ENE visible
04 Sep - 22:05:06 10° NW 22:21:24 45° NNE 22:30:32 10° E visible
05 Sep - 00:32:22 10° WNW 00:44:07 55° SW 00:50:35 10° SE night (unlit)
05 Sep - 10:09:02 10° SSW 10:16:49 42° SE 10:30:32 10° ENE daylight
05 Sep - 12:28:22 10° WSW 12:39:42 65° NNW 13:00:04 10° NE daylight
05 Sep - 14:53:41 10° WNW 15:08:06 30° NNW 15:27:05 10° NNE daylight
05 Sep - 17:27:34 10° NW 17:42:24 20° N 17:56:25 10° NE daylight
05 Sep - 19:59:26 10° NNW 20:16:03 27° NNE 20:27:40 10° ENE visible
05 Sep - 22:26:32 10° NW 22:43:15 59° NNE 22:52:09 10° ESE visible
